• In Österreich
  • Länderverzeichnis
  • Für 7 Tage
  • Wassertemperatur
  • Satellitenkarten
  • Wetterkarte
  • News
  • Widgets
  • user-avatar
    Anmelden

    Stündliche Wetter Djelfa

    Heute, 26 Mai, Samstag

    Zeit Temperatur Niederschläge Wind Luftdruck Luftfeuchtigkeit
    00:00 +23°C° 0 mm 10 m/S 664 mmHg 29%
    01:00 +23°C° 0 mm 10 m/S 664 mmHg 29%
    02:00 +22°C° 0 mm 9 m/S 664 mmHg 30%
    03:00 +22°C° 0 mm 8 m/S 664 mmHg 31%
    04:00 +21°C° 0 mm 8 m/S 664 mmHg 31%
    05:00 +21°C° 0 mm 7 m/S 664 mmHg 32%
    06:00 +21°C° 0 mm 7 m/S 664 mmHg 33%
    07:00 +22°C° 0 mm 8 m/S 665 mmHg 31%
    08:00 +24°C° 0 mm 9 m/S 665 mmHg 28%
    09:00 +26°C° 0 mm 9 m/S 665 mmHg 26%
    10:00 +27°C° 0 mm 9 m/S 666 mmHg 23%
    11:00 +28°C° 0 mm 10 m/S 666 mmHg 21%
    12:00 +29°C° 0 mm 10 m/S 666 mmHg 19%
    13:00 +29°C° 0 mm 10 m/S 666 mmHg 18%
    14:00 +31°C° 0 mm 10 m/S 666 mmHg 17%
    15:00 +31°C° 0 mm 9 m/S 666 mmHg 16%
    16:00 +31°C° 0 mm 9 m/S 666 mmHg 19%
    17:00 +29°C° 0 mm 8 m/S 666 mmHg 22%
    18:00 +28°C° 0 mm 8 m/S 666 mmHg 25%
    19:00 +27°C° 0 mm 8 m/S 666 mmHg 29%
    20:00 +26°C° 0 mm 8 m/S 666 mmHg 33%
    21:00 +24°C° 0 mm 8 m/S 666 mmHg 37%
    22:00 +23°C° 0 mm 7 m/S 666 mmHg 37%
    23:00 +23°C° 0 mm 7 m/S 666 mmHg 37%

    Morgen, 27 Mai, Sonntag

    Zeit Temperatur Niederschläge Wind Luftdruck Luftfeuchtigkeit
    00:00 +22°C° 0 mm 6 m/S 666 mmHg 37%
    01:00 +22°C° 0,2 mm 6 m/S 665 mmHg 38%
    02:00 +21°C° 0,2 mm 5 m/S 665 mmHg 40%
    03:00 +20°C° 0,2 mm 5 m/S 665 mmHg 42%
    04:00 +21°C° 0 mm 4 m/S 665 mmHg 42%
    05:00 +21°C° 0 mm 4 m/S 665 mmHg 41%
    06:00 +21°C° 0 mm 3 m/S 665 mmHg 41%
    07:00 +22°C° 0,4 mm 4 m/S 666 mmHg 37%
    08:00 +25°C° 0,4 mm 5 m/S 666 mmHg 34%
    09:00 +26°C° 0,4 mm 6 m/S 667 mmHg 31%
    10:00 +27°C° 0,1 mm 6 m/S 667 mmHg 29%
    11:00 +29°C° 0,1 mm 6 m/S 667 mmHg 26%
    12:00 +30°C° 0,1 mm 6 m/S 667 mmHg 23%
    13:00 +32°C° 0 mm 7 m/S 666 mmHg 22%
    14:00 +32°C° 0 mm 7 m/S 666 mmHg 21%
    15:00 +33°C° 0 mm 8 m/S 665 mmHg 20%
    16:00 +32°C° 0,1 mm 7 m/S 665 mmHg 21%
    17:00 +30°C° 0,1 mm 7 m/S 665 mmHg 22%
    18:00 +30°C° 0,1 mm 7 m/S 664 mmHg 24%
    19:00 +28°C° 0,2 mm 7 m/S 664 mmHg 26%
    20:00 +27°C° 0,2 mm 7 m/S 664 mmHg 29%
    21:00 +26°C° 0,2 mm 7 m/S 664 mmHg 31%
    22:00 +24°C° 0 mm 6 m/S 664 mmHg 34%
    23:00 +23°C° 0 mm 5 m/S 664 mmHg 37%

    übermorgen, 28 Mai, Montag

    Zeit Temperatur Niederschläge Wind Luftdruck Luftfeuchtigkeit
    00:00 +22°C° 0 mm 5 m/S 664 mmHg 40%
    01:00 +22°C° 0 mm 4 m/S 663 mmHg 44%
    02:00 +21°C° 0 mm 4 m/S 663 mmHg 49%
    03:00 +20°C° 0 mm 3 m/S 662 mmHg 54%
    04:00 +19°C° 0 mm 3 m/S 662 mmHg 56%
    05:00 +19°C° 0 mm 3 m/S 662 mmHg 59%
    06:00 +19°C° 0 mm 3 m/S 662 mmHg 61%
    07:00 +20°C° 0 mm 3 m/S 663 mmHg 56%
    08:00 +22°C° 0 mm 4 m/S 663 mmHg 51%
    09:00 +23°C° 0 mm 4 m/S 664 mmHg 46%
    10:00 +25°C° 0 mm 4 m/S 664 mmHg 42%
    11:00 +26°C° 0 mm 4 m/S 664 mmHg 39%
    12:00 +27°C° 0 mm 4 m/S 664 mmHg 35%
    13:00 +28°C° 0 mm 4 m/S 664 mmHg 33%
    14:00 +29°C° 0 mm 5 m/S 664 mmHg 32%
    15:00 +29°C° 0 mm 6 m/S 663 mmHg 30%
    16:00 +28°C° 0 mm 6 m/S 663 mmHg 36%
    17:00 +26°C° 0 mm 7 m/S 663 mmHg 42%
    18:00 +24°C° 0 mm 8 m/S 663 mmHg 49%
    19:00 +23°C° 0 mm 8 m/S 663 mmHg 51%
    20:00 +22°C° 0 mm 8 m/S 663 mmHg 53%
    21:00 +21°C° 0 mm 8 m/S 664 mmHg 56%
    22:00 +20°C° 0 mm 8 m/S 663 mmHg 60%
    23:00 +18°C° 0 mm 8 m/S 663 mmHg 64%

    29 Mai, Dienstag

    Zeit Temperatur Niederschläge Wind Luftdruck Luftfeuchtigkeit
    00:00 +17°C° 0 mm 7 m/S 663 mmHg 68%
    01:00 +17°C° 0 mm 6 m/S 663 mmHg 69%
    02:00 +16°C° 0 mm 6 m/S 663 mmHg 71%
    03:00 +16°C° 0 mm 5 m/S 662 mmHg 72%
    04:00 +16°C° 0 mm 5 m/S 662 mmHg 69%
    05:00 +16°C° 0 mm 5 m/S 662 mmHg 67%
    06:00 +17°C° 0 mm 4 m/S 662 mmHg 64%
    07:00 +17°C° 0 mm 5 m/S 663 mmHg 54%
    08:00 +20°C° 0 mm 5 m/S 663 mmHg 44%
    09:00 +22°C° 0 mm 5 m/S 664 mmHg 34%
    10:00 +23°C° 0 mm 5 m/S 664 mmHg 30%
    11:00 +26°C° 0 mm 5 m/S 664 mmHg 26%
    12:00 +27°C° 0 mm 5 m/S 664 mmHg 23%
    13:00 +27°C° 0 mm 5 m/S 664 mmHg 22%
    14:00 +28°C° 0 mm 4 m/S 664 mmHg 21%
    15:00 +28°C° 0 mm 3 m/S 664 mmHg 20%
    16:00 +28°C° 0 mm 4 m/S 663 mmHg 21%
    17:00 +27°C° 0 mm 5 m/S 663 mmHg 22%
    18:00 +27°C° 0 mm 5 m/S 663 mmHg 23%
    19:00 +26°C° 0 mm 6 m/S 663 mmHg 30%
    20:00 +23°C° 0 mm 6 m/S 663 mmHg 37%
    21:00 +22°C° 0 mm 7 m/S 663 mmHg 43%
    22:00 +21°C° 0 mm 6 m/S 663 mmHg 48%
    23:00 +20°C° 0 mm 5 m/S 663 mmHg 53%

    30 Mai, Mittwoch

    Zeit Temperatur Niederschläge Wind Luftdruck Luftfeuchtigkeit
    00:00 +19°C° 0 mm 4 m/S 663 mmHg 57%
    01:00 +19°C° 0 mm 4 m/S 662 mmHg 59%
    02:00 +18°C° 0 mm 4 m/S 662 mmHg 61%
    03:00 +18°C° 0 mm 3 m/S 662 mmHg 63%
    04:00 +17°C° 0 mm 3 m/S 662 mmHg 62%
    05:00 +17°C° 0 mm 3 m/S 662 mmHg 61%
    06:00 +17°C° 0 mm 3 m/S 662 mmHg 60%
    07:00 +19°C° 0 mm 3 m/S 663 mmHg 52%
    08:00 +20°C° 0 mm 3 m/S 663 mmHg 44%
    09:00 +22°C° 0 mm 3 m/S 664 mmHg 37%
    10:00 +24°C° 0 mm 3 m/S 664 mmHg 33%
    11:00 +26°C° 0 mm 3 m/S 664 mmHg 30%
    12:00 +27°C° 0 mm 3 m/S 664 mmHg 26%
    13:00 +28°C° 0 mm 3 m/S 664 mmHg 25%
    14:00 +29°C° 0 mm 3 m/S 664 mmHg 24%
    15:00 +29°C° 0 mm 4 m/S 664 mmHg 23%
    16:00 +28°C° 0,8 mm 4 m/S 663 mmHg 28%
    17:00 +27°C° 0,8 mm 4 m/S 663 mmHg 32%
    18:00 +26°C° 0,8 mm 5 m/S 663 mmHg 36%
    19:00 +23°C° 1 mm 5 m/S 663 mmHg 41%
    20:00 +22°C° 1 mm 6 m/S 663 mmHg 47%
    21:00 +21°C° 1 mm 7 m/S 664 mmHg 52%
    22:00 +20°C° 0,6 mm 6 m/S 664 mmHg 57%
    23:00 +19°C° 0,6 mm 6 m/S 663 mmHg 63%

    31 Mai, Donnerstag

    Zeit Temperatur Niederschläge Wind Luftdruck Luftfeuchtigkeit
    00:00 +17°C° 0,6 mm 5 m/S 663 mmHg 69%
    01:00 +17°C° 1,1 mm 5 m/S 663 mmHg 71%
    02:00 +17°C° 1,1 mm 4 m/S 663 mmHg 73%
    03:00 +17°C° 1,1 mm 4 m/S 663 mmHg 76%
    04:00 +17°C° 0,5 mm 4 m/S 663 mmHg 74%
    05:00 +17°C° 0,5 mm 3 m/S 664 mmHg 73%
    06:00 +17°C° 0,5 mm 3 m/S 664 mmHg 72%
    07:00 +19°C° 0,3 mm 3 m/S 664 mmHg 65%
    08:00 +20°C° 0,3 mm 3 m/S 665 mmHg 58%
    09:00 +22°C° 0,3 mm 4 m/S 665 mmHg 51%
    10:00 +24°C° 0 mm 3 m/S 665 mmHg 46%
    11:00 +25°C° 0 mm 3 m/S 665 mmHg 42%
    12:00 +27°C° 0 mm 3 m/S 665 mmHg 37%
    13:00 +27°C° 0 mm 3 m/S 665 mmHg 35%
    14:00 +28°C° 0 mm 3 m/S 665 mmHg 33%
    15:00 +29°C° 0 mm 3 m/S 665 mmHg 31%
    16:00 +28°C° 0,4 mm 3 m/S 665 mmHg 32%
    17:00 +28°C° 0,4 mm 3 m/S 665 mmHg 34%
    18:00 +27°C° 0,4 mm 4 m/S 665 mmHg 35%
    19:00 +26°C° 0,8 mm 3 m/S 666 mmHg 39%
    20:00 +25°C° 0,8 mm 3 m/S 666 mmHg 44%
    21:00 +24°C° 0,8 mm 3 m/S 667 mmHg 48%
    22:00 +24°C° 0,4 mm 3 m/S 666 mmHg 50%
    23:00 +23°C° 0,4 mm 2 m/S 666 mmHg 53%
    Mehr zeigen